When you browse on this site, cookies collect data to enhance your experience and personalize the content and advertising you see.
Visit our Privacy Policy to learn more. By continuing to use the site, you agree to this use of cookies and data.
  • In Austria
  • List of Countries
  • For 7 days
  • Water Temperature
  • Satellite Maps
  • Weather Map
  • News
  • Weather Widgets
  • user-avatar
    Login

    Hourly Weather Viedma

    Today, 20 February, Wednesday

    Time Temperature Precipitation Wind Pressure Humidity
    00:00 +27°C° 0 mm 4 mps 748 mmHg 25%
    01:00 +26°C° 0 mm 4 mps 748 mmHg 29%
    02:00 +25°C° 0 mm 3 mps 748 mmHg 34%
    03:00 +25°C° 0 mm 4 mps 748 mmHg 40%
    04:00 +23°C° 0 mm 5 mps 749 mmHg 45%
    05:00 +23°C° 0 mm 6 mps 749 mmHg 51%
    06:00 +23°C° 0 mm 6 mps 750 mmHg 43%
    07:00 +25°C° 0 mm 5 mps 750 mmHg 36%
    08:00 +26°C° 0 mm 5 mps 750 mmHg 28%
    09:00 +27°C° 0 mm 4 mps 751 mmHg 25%
    10:00 +28°C° 0 mm 3 mps 751 mmHg 22%
    11:00 +29°C° 0 mm 2 mps 751 mmHg 19%
    12:00 +31°C° 0 mm 3 mps 750 mmHg 17%
    13:00 +33°C° 0 mm 4 mps 750 mmHg 15%
    14:00 +35°C° 0 mm 5 mps 750 mmHg 13%
    15:00 +34°C° 0 mm 5 mps 749 mmHg 13%
    16:00 +34°C° 0 mm 5 mps 749 mmHg 14%
    17:00 +34°C° 0 mm 5 mps 749 mmHg 14%
    18:00 +32°C° 0 mm 4 mps 749 mmHg 19%
    19:00 +29°C° 0 mm 4 mps 749 mmHg 23%
    20:00 +27°C° 0 mm 3 mps 749 mmHg 28%
    21:00 +26°C° 0 mm 4 mps 749 mmHg 36%
    22:00 +25°C° 0 mm 4 mps 750 mmHg 44%
    23:00 +23°C° 0 mm 4 mps 750 mmHg 52%

    Tomorrow, 21 February, Thursday

    Time Temperature Precipitation Wind Pressure Humidity
    00:00 +22°C° 0 mm 4 mps 751 mmHg 55%
    01:00 +22°C° 0 mm 4 mps 751 mmHg 58%
    02:00 +21°C° 0 mm 3 mps 751 mmHg 62%
    03:00 +21°C° 0 mm 3 mps 751 mmHg 64%
    04:00 +20°C° 0 mm 3 mps 751 mmHg 66%
    05:00 +20°C° 0 mm 2 mps 752 mmHg 68%
    06:00 +21°C° 0 mm 2 mps 752 mmHg 62%
    07:00 +23°C° 0 mm 2 mps 753 mmHg 56%
    08:00 +24°C° 0 mm 3 mps 753 mmHg 50%
    09:00 +25°C° 0 mm 3 mps 754 mmHg 44%
    10:00 +27°C° 0 mm 3 mps 754 mmHg 37%
    11:00 +28°C° 0 mm 3 mps 754 mmHg 30%
    12:00 +28°C° 0 mm 4 mps 754 mmHg 30%
    13:00 +29°C° 0 mm 4 mps 754 mmHg 30%
    14:00 +29°C° 0 mm 5 mps 754 mmHg 30%
    15:00 +28°C° 0 mm 5 mps 754 mmHg 35%
    16:00 +27°C° 0 mm 6 mps 754 mmHg 41%
    17:00 +24°C° 0 mm 6 mps 754 mmHg 47%
    18:00 +23°C° 0 mm 7 mps 755 mmHg 51%
    19:00 +22°C° 0 mm 7 mps 755 mmHg 55%
    20:00 +20°C° 0 mm 7 mps 756 mmHg 58%
    21:00 +20°C° 0 mm 7 mps 756 mmHg 58%
    22:00 +20°C° 0 mm 6 mps 757 mmHg 57%
    23:00 +20°C° 0 mm 5 mps 758 mmHg 57%

    Day after tomorrow, 22 February, Friday

    Time Temperature Precipitation Wind Pressure Humidity
    00:00 +19°C° 0 mm 5 mps 758 mmHg 60%
    01:00 +19°C° 0 mm 4 mps 758 mmHg 64%
    02:00 +19°C° 0 mm 4 mps 758 mmHg 68%
    03:00 +18°C° 0 mm 3 mps 758 mmHg 70%
    04:00 +18°C° 0 mm 3 mps 758 mmHg 72%
    05:00 +18°C° 0 mm 3 mps 758 mmHg 74%
    06:00 +19°C° 0 mm 4 mps 758 mmHg 68%
    07:00 +20°C° 0 mm 4 mps 759 mmHg 62%
    08:00 +21°C° 0 mm 5 mps 759 mmHg 56%
    09:00 +22°C° 0 mm 5 mps 759 mmHg 49%
    10:00 +23°C° 0 mm 5 mps 759 mmHg 43%
    11:00 +25°C° 0 mm 5 mps 759 mmHg 37%
    12:00 +26°C° 0 mm 6 mps 759 mmHg 36%
    13:00 +26°C° 0 mm 6 mps 759 mmHg 35%
    14:00 +26°C° 0 mm 7 mps 758 mmHg 35%
    15:00 +26°C° 0 mm 7 mps 758 mmHg 37%
    16:00 +24°C° 0 mm 7 mps 757 mmHg 40%
    17:00 +23°C° 0 mm 7 mps 757 mmHg 43%
    18:00 +22°C° 0 mm 7 mps 757 mmHg 48%
    19:00 +21°C° 0 mm 7 mps 757 mmHg 53%
    20:00 +20°C° 0 mm 7 mps 757 mmHg 58%
    21:00 +20°C° 0 mm 7 mps 757 mmHg 61%
    22:00 +20°C° 0 mm 7 mps 756 mmHg 64%
    23:00 +20°C° 0 mm 8 mps 756 mmHg 66%

    23 February, Saturday

    Time Temperature Precipitation Wind Pressure Humidity
    00:00 +18°C° 0 mm 8 mps 755 mmHg 70%
    01:00 +18°C° 0 mm 8 mps 754 mmHg 74%
    02:00 +18°C° 0 mm 8 mps 753 mmHg 78%
    03:00 +18°C° 0 mm 8 mps 753 mmHg 79%
    04:00 +18°C° 0 mm 7 mps 752 mmHg 79%
    05:00 +18°C° 0 mm 7 mps 751 mmHg 79%
    06:00 +21°C° 0 mm 8 mps 751 mmHg 72%
    07:00 +22°C° 0 mm 8 mps 751 mmHg 64%
    08:00 +24°C° 0 mm 8 mps 750 mmHg 57%
    09:00 +24°C° 0 mm 9 mps 750 mmHg 45%
    10:00 +24°C° 0 mm 10 mps 751 mmHg 34%
    11:00 +24°C° 0 mm 11 mps 751 mmHg 23%
    12:00 +23°C° 0 mm 11 mps 751 mmHg 24%
    13:00 +23°C° 0 mm 11 mps 751 mmHg 24%
    14:00 +23°C° 0 mm 11 mps 751 mmHg 25%
    15:00 +23°C° 0 mm 10 mps 751 mmHg 24%
    16:00 +22°C° 0 mm 9 mps 751 mmHg 23%
    17:00 +22°C° 0 mm 8 mps 751 mmHg 23%
    18:00 +21°C° 0 mm 7 mps 751 mmHg 29%
    19:00 +19°C° 0 mm 6 mps 751 mmHg 35%
    20:00 +18°C° 0 mm 4 mps 751 mmHg 42%
    21:00 +17°C° 0 mm 4 mps 751 mmHg 45%
    22:00 +17°C° 0 mm 3 mps 750 mmHg 49%
    23:00 +16°C° 0 mm 2 mps 750 mmHg 53%

    24 February, Sunday

    Time Temperature Precipitation Wind Pressure Humidity
    00:00 +16°C° 0 mm 2 mps 750 mmHg 54%
    01:00 +15°C° 0 mm 2 mps 750 mmHg 55%
    02:00 +15°C° 0 mm 2 mps 750 mmHg 56%
    03:00 +14°C° 0 mm 4 mps 750 mmHg 53%
    04:00 +15°C° 0 mm 6 mps 750 mmHg 49%
    05:00 +15°C° 0 mm 7 mps 750 mmHg 45%
    06:00 +15°C° 0 mm 8 mps 750 mmHg 43%
    07:00 +16°C° 0 mm 9 mps 750 mmHg 41%
    08:00 +16°C° 0 mm 10 mps 750 mmHg 38%
    09:00 +16°C° 0 mm 10 mps 750 mmHg 37%
    10:00 +17°C° 0 mm 11 mps 751 mmHg 35%
    11:00 +17°C° 0 mm 12 mps 751 mmHg 34%
    12:00 +17°C° 0.1 mm 12 mps 751 mmHg 35%
    13:00 +17°C° 0.1 mm 12 mps 751 mmHg 36%
    14:00 +17°C° 0.1 mm 12 mps 751 mmHg 37%
    15:00 +15°C° 0 mm 12 mps 752 mmHg 35%
    16:00 +15°C° 0 mm 12 mps 752 mmHg 33%
    17:00 +15°C° 0 mm 12 mps 752 mmHg 31%
    18:00 +14°C° 0 mm 11 mps 753 mmHg 34%
    19:00 +13°C° 0 mm 9 mps 753 mmHg 38%
    20:00 +12°C° 0 mm 8 mps 754 mmHg 41%
    21:00 +12°C° 0 mm 8 mps 754 mmHg 40%
    22:00 +12°C° 0 mm 8 mps 754 mmHg 40%
    23:00 +11°C° 0 mm 7 mps 754 mmHg 40%

    25 February, Monday

    Time Temperature Precipitation Wind Pressure Humidity
    00:00 +11°C° 0 mm 8 mps 754 mmHg 39%
    01:00 +11°C° 0 mm 10 mps 754 mmHg 38%
    02:00 +11°C° 0 mm 11 mps 754 mmHg 37%
    03:00 +11°C° 0 mm 11 mps 755 mmHg 40%
    04:00 +9°C° 0 mm 11 mps 755 mmHg 44%
    05:00 +9°C° 0 mm 11 mps 755 mmHg 48%
    06:00 +9°C° 0 mm 12 mps 755 mmHg 47%
    07:00 +10°C° 0 mm 12 mps 756 mmHg 47%
    08:00 +12°C° 0 mm 13 mps 756 mmHg 47%
    09:00 +13°C° 0 mm 12 mps 757 mmHg 45%
    10:00 +13°C° 0 mm 12 mps 757 mmHg 43%
    11:00 +14°C° 0 mm 12 mps 758 mmHg 41%
    12:00 +14°C° 0 mm 11 mps 757 mmHg 39%
    13:00 +14°C° 0 mm 11 mps 757 mmHg 38%
    14:00 +16°C° 0 mm 10 mps 757 mmHg 36%
    15:00 +14°C° 0 mm 10 mps 757 mmHg 34%
    16:00 +15°C° 0 mm 9 mps 757 mmHg 32%
    17:00 +15°C° 0 mm 9 mps 757 mmHg 30%
    18:00 +15°C° 0 mm 8 mps 757 mmHg 33%
    19:00 +14°C° 0 mm 6 mps 757 mmHg 36%
    20:00 +13°C° 0 mm 4 mps 757 mmHg 40%
    21:00 +13°C° 0 mm 4 mps 757 mmHg 42%
    22:00 +13°C° 0 mm 4 mps 758 mmHg 45%
    23:00 +12°C° 0 mm 4 mps 758 mmHg 47%
    Show more